Terminal Aerodrome Forecast
Issued by NWS

Home | Current Version | Previous Version | Text Only | Print | Product List | Glossary On
Versions: 1 2 3 4 5 6 7 8 9 10 11 12 13
000
FTUS45 KFGZ 262300
TAFPRC
TAF
KPRC 262324Z 2700/2724 VRB05KT P6SM SCT050
      TEMPO 2700/2702 BKN050=

USA.gov is the U.S. government's official web portal to all federal, state and local government web resources and services.